CW7710 Weather Reports


Display with metric or nautical units.
time (UTC)temp
F
wind
direction
speed
MPH
gust
MPH
rain 1hr
in
rain 24hr
in
rain mn
in
humidity
%
barometer
mb
20260508195337 69 225 4.0 0.0 0.00 0.00 0.00 32 1013.2
20260508194340 69 342 5.0 0.0 0.00 0.00 0.00 31 1013.3
20260508193325 70 279 8.0 0.0 0.00 0.00 0.00 31 1013.9
20260508192336 70 205 12.0 0.0 0.00 0.00 0.00 31 1014.1
20260508191339 70 242 7.0 0.0 0.00 0.00 0.00 33 1013.6
20260508190342 68 21 6.0 0.0 0.00 0.00 0.00 35 1013.8
20260508185405 68 279 4.0 0.0 0.00 0.00 0.00 37 1013.8
20260508184326 68 31 6.0 0.0 0.00 0.00 0.00 36 1014.0
20260508183334 68 310 3.0 0.0 0.00 0.00 0.00 39 1014.2
20260508182338 67 273 5.0 0.0 0.00 0.00 0.00 42 1014.7
20260508181343 67 268 3.0 0.0 0.00 0.00 0.00 41 1014.8
20260508180350 67 300 4.0 0.0 0.00 0.00 0.00 40 1014.9
20260508175337 67 291 3.0 0.0 0.00 0.00 0.00 40 1015.0
20260508174340 66 283 3.0 0.0 0.00 0.00 0.00 44 1015.3
20260508173328 64 94 3.0 0.0 0.00 0.00 0.00 45 1015.7
20260508172333 64 91 4.0 0.0 0.00 0.00 0.00 46 1015.9
20260508171341 64 16 3.0 0.0 0.00 0.00 0.00 46 1015.9
20260508170345 63 115 3.0 0.0 0.00 0.00 0.00 48 1016.1
20260508165348 62 152 4.0 0.0 0.00 0.00 0.00 49 1015.8
20260508164351 61 176 3.0 0.0 0.00 0.00 0.00 52 1016.3
20260508163333 60 100 4.0 0.0 0.00 0.00 0.00 53 1016.4
20260508162342 60 126 3.0 0.0 0.00 0.00 0.00 56 1016.0
20260508161346 58 96 3.0 0.0 0.00 0.00 0.00 57 1016.0
20260508160330 57 106 4.0 0.0 0.00 0.00 0.00 59 1016.3
20260508155334 56 76 3.0 0.0 0.00 0.00 0.00 61 1016.2
20260508154358 55 92 4.0 0.0 0.00 0.00 0.00 64 1016.3
20260508153328 53 86 4.0 0.0 0.00 0.00 0.00 67 1016.7
20260508152331 52 92 4.0 0.0 0.00 0.00 0.00 69 1017.1
20260508151335 51 111 4.0 0.0 0.00 0.00 0.00 72 1017.0
20260508150339 50 105 4.0 0.0 0.00 0.00 0.00 74 1015.4
20260508145326 49 107 5.0 0.0 0.00 0.00 0.00 76 1017.1
20260508144330 48 82 6.0 0.0 0.00 0.00 0.00 78 1016.6
20260508143335 47 90 6.0 0.0 0.00 0.00 0.00 80 1016.7
20260508142322 46 107 7.0 0.0 0.00 0.00 0.00 82 1017.1
20260508141332 45 85 5.0 0.0 0.00 0.00 0.00 83 1017.1
20260508140337 44 107 5.0 0.0 0.00 0.00 0.00 84 1016.7
20260508135341 43 130 5.0 0.0 0.00 0.00 0.00 84 1017.3
20260508134326 42 77 5.0 0.0 0.00 0.00 0.00 84 1017.2
20260508133335 41 90 5.0 0.0 0.00 0.00 0.00 84 1016.6
20260508132341 41 73 4.0 0.0 0.00 0.00 0.00 85 1016.6
20260508131326 41 98 3.0 0.0 0.00 0.00 0.00 85 1016.6
20260508130329 39 134 4.0 0.0 0.00 0.00 0.00 85 1017.0
20260508125336 38 111 3.0 0.0 0.00 0.00 0.00 85 1016.8
20260508124400 38 100 2.0 0.0 0.00 0.00 0.00 85 1016.9
20260508123344 37 90 2.0 0.0 0.00 0.00 0.00 84 1017.2
20260508122328 36 90 1.0 0.0 0.00 0.00 0.00 84 1017.2
20260508121336 36 136 0.0 0.0 0.00 0.00 0.00 84 1017.2
20260508120339 35 137 2.0 0.0 0.00 0.00 0.00 84 1015.7
20260508115333 37 127 2.0 0.0 0.00 0.00 0.00 84 1016.9
20260508114336 38 132 4.0 0.0 0.00 0.00 0.00 83 1016.8
20260508113343 37 194 4.0 0.0 0.00 0.00 0.00 83 1017.1
20260508112332 39 119 2.0 0.0 0.00 0.00 0.00 83 1016.5
20260508111337 39 117 3.0 0.0 0.00 0.00 0.00 83 1016.5
20260508110341 38 119 1.0 0.0 0.00 0.00 0.00 83 1016.7
20260508105345 39 81 3.0 0.0 0.00 0.00 0.00 83 1016.0
20260508104353 39 69 2.0 0.0 0.00 0.00 0.00 82 1016.0
20260508103337 40 75 3.0 0.0 0.00 0.00 0.00 82 1016.0
20260508102341 41 113 2.0 0.0 0.00 0.00 0.00 82 1016.4
20260508101326 41 168 1.0 0.0 0.00 0.00 0.00 82 1016.5
20260508100334 40 170 3.0 0.0 0.00 0.00 0.00 82 1015.9
20260508095344 39 171 3.0 0.0 0.00 0.00 0.00 81 1015.9
20260508094328 40 190 2.0 0.0 0.00 0.00 0.00 81 1015.8
20260508093331 40 76 1.0 0.0 0.00 0.00 0.00 81 1015.9
20260508092340 39 45 2.0 0.0 0.00 0.00 0.00 80 1015.9
20260508091345 40 44 3.0 0.0 0.00 0.00 0.00 80 1016.0
20260508090329 41 67 1.0 0.0 0.00 0.00 0.00 80 1016.5
20260508085333 40 167 2.0 0.0 0.00 0.00 0.00 79 1015.7
20260508084341 41 102 1.0 0.0 0.00 0.00 0.00 78 1015.8
20260508083346 42 162 2.0 0.0 0.00 0.00 0.00 78 1016.4
20260508082328 42 176 5.0 0.0 0.00 0.00 0.00 77 1016.3
20260508081333 44 198 3.0 0.0 0.00 0.00 0.00 76 1015.9
20260508080336 44 111 3.0 0.0 0.00 0.00 0.00 77 1015.9
20260508075343 44 113 4.0 0.0 0.00 0.00 0.00 77 1016.2
20260508074347 44 102 3.0 0.0 0.00 0.00 0.00 76 1016.2
20260508073329 43 94 3.0 0.0 0.00 0.00 0.00 75 1016.2
20260508072333 43 105 3.0 0.0 0.00 0.00 0.00 75 1016.1
20260508071341 43 106 2.0 0.0 0.00 0.00 0.00 74 1016.0
20260508070328 44 103 2.0 0.0 0.00 0.00 0.00 75 1016.0
20260508065352 44 176 6.0 0.0 0.00 0.00 0.00 75 1016.0
20260508064335 43 186 6.0 0.0 0.00 0.00 0.00 74 1015.6
20260508063340 43 195 3.0 0.0 0.00 0.00 0.00 72 1015.5
20260508062328 44 160 3.0 0.0 0.00 0.00 0.00 72 1015.9
20260508061332 44 152 1.0 0.0 0.00 0.00 0.00 70 1016.0
20260508060335 45 130 1.0 0.0 0.00 0.00 0.00 69 1016.0
20260508055340 46 116 1.0 0.0 0.00 0.00 0.00 68 1015.6
20260508054328 46 136 2.0 0.0 0.00 0.00 0.00 67 1015.6
20260508053332 47 83 1.0 0.0 0.00 0.00 0.00 67 1015.6
20260508052339 47 200 0.0 0.0 0.00 0.00 0.00 67 1015.5
20260508051327 48 200 0.0 0.0 0.00 0.00 0.00 66 1015.9
20260508050331 48 200 0.0 0.0 0.00 0.00 0.00 67 1016.0
20260508045355 47 200 2.0 0.0 0.00 0.00 0.00 67 1015.5
20260508044338 48 205 4.0 0.0 0.00 0.00 0.00 65 1015.6
20260508043325 48 270 3.0 0.0 0.00 0.00 0.00 65 1015.4
20260508042334 49 326 2.0 0.0 0.00 0.00 0.00 63 1016.0
20260508041358 50 239 4.0 0.0 0.00 0.00 0.00 61 1015.9
20260508035405 50 176 3.0 0.0 0.00 0.00 0.00 60 1015.2
20260508034332 51 228 1.0 0.0 0.00 0.00 0.00 57 1014.8
20260508033356 53 330 3.0 0.0 0.00 0.00 0.00 55 1015.2
20260508032359 56 181 4.0 0.0 0.00 0.00 0.00 52 1014.9
20260508031341 59 32 2.0 0.0 0.00 0.00 0.00 48 1014.9
20260508030329 59 30 3.0 0.0 0.00 0.00 0.00 48 1014.8
20260508025337 59 30 1.0 0.0 0.00 0.00 0.00 47 1014.4
20260508024401 60 27 2.0 0.0 0.00 0.00 0.00 47 1014.3
20260508023344 60 36 4.0 0.0 0.00 0.00 0.00 47 1014.1
20260508022328 61 90 1.0 0.0 0.00 0.00 0.00 46 1014.7
20260508021352 61 51 2.0 0.0 0.00 0.00 0.00 48 1014.5
20260508020338 62 59 1.0 0.0 0.00 0.00 0.00 47 1014.4
20260508015342 62 18 4.0 0.0 0.00 0.00 0.00 48 1013.8
20260508014326 62 37 4.0 0.0 0.00 0.00 0.00 47 1013.7
20260508013331 62 24 10.0 0.0 0.00 0.00 0.00 47 1013.7
20260508012339 62 34 11.0 0.0 0.00 0.00 0.00 48 1013.4
20260508011404 61 3 10.0 0.0 0.00 0.00 0.00 48 1013.7
20260508010327 62 46 15.0 0.0 0.00 0.00 0.00 49 1014.6
20260508005331 62 39 18.0 0.0 0.00 0.00 0.00 49 1013.8
20260508004343 63 36 18.0 0.0 0.00 0.00 0.00 48 1013.4
20260508003347 62 19 17.0 0.0 0.00 0.00 0.00 48 1013.7
20260508002330 63 20 19.0 0.0 0.00 0.00 0.00 48 1013.3
20260508001334 64 27 21.0 0.0 0.00 0.00 0.00 46 1013.1
20260508000327 67 13 8.0 0.0 0.00 0.00 0.00 42 1013.4
20260507235328 66 352 8.0 0.0 0.00 0.00 0.00 42 1013.0
20260507234331 67 2 10.0 0.0 0.00 0.00 0.00 40 1012.9
20260507233335 68 341 8.0 0.0 0.00 0.00 0.00 39 1013.0
20260507232359 68 15 13.0 0.0 0.00 0.00 0.00 38 1013.0
20260507231402 68 11 10.0 0.0 0.00 0.00 0.00 39 1012.9
20260507230349 69 346 11.0 0.0 0.00 0.00 0.00 37 1013.0
20260507225332 69 11 8.0 0.0 0.00 0.00 0.00 38 1012.4
20260507224336 69 4 7.0 0.0 0.00 0.00 0.00 36 1012.3
20260507223341 69 8 10.0 0.0 0.00 0.00 0.00 37 1012.4
20260507222329 69 333 10.0 0.0 0.00 0.00 0.00 37 1012.5
20260507221334 68 26 6.0 0.0 0.00 0.00 0.00 37 1012.3
20260507220339 69 16 9.0 0.0 0.00 0.00 0.00 36 1012.4
20260507215403 69 20 7.0 0.0 0.00 0.00 0.00 37 1012.6
20260507214406 69 30 9.0 0.0 0.00 0.00 0.00 37 1012.7
20260507213332 68 352 8.0 0.0 0.00 0.00 0.00 37 1012.7
20260507212356 68 347 12.0 0.0 0.00 0.00 0.00 38 1012.8
20260507211339 68 334 12.0 0.0 0.00 0.00 0.00 39 1012.8
20260507210327 68 7 10.0 0.0 0.00 0.00 0.00 39 1013.0
20260507205336 68 359 13.0 0.0 0.00 0.00 0.00 39 1013.6
20260507204342 68 55 15.0 0.0 0.00 0.00 0.00 41 1013.6
20260507203326 68 8 13.0 0.0 0.00 0.00 0.00 42 1013.5
20260507202334 68 42 16.0 0.0 0.00 0.00 0.00 43 1013.5
20260507201322 68 338 12.0 0.0 0.00 0.00 0.00 44 1013.3
20260507200329 67 44 10.0 0.0 0.00 0.00 0.00 40 1012.0